Location: Dover
(48.8500°N, 53.9833°W)
Time: 15:41:32
(UTC+00:00)

Cosmos 44 Rocket - Pass Details

Date: 14 November 2025
Orbit: 637 x 741 km, 65.1° (Epoch: 12 December)

Event Time Altitude Azimuth Distance (km) Brightness Sun altitude
Rises 22:16:52 0° 210° (SSW) 2,981 7.0 -23.0°
Reaches altitude 10° 22:19:08 10° 209° (SSW) 2,087 6.1 -23.4°
Enters shadow 22:23:46 73° 136° (SE) 718 3.1 -24.1°
